SXS6UC LTBJ-EDDN

Flight info

Callsign SXS6UC
Flight time N/A
Altitude 32000
Route VEXOL UG802 NEMIS UG18 FSK UL608 DISOR DCT LONTA UL608 DOLEV DCT NIDLO DCT LIMRA DCT SUBEN T161 AKINI
Aircraft B738/M-SDFGILORVWYZ/SB1

Departure

Time 2026-05-07 16:19
Airport Adnan Menderes International Airport (LTBJ)

Arrival

Time N/A
Airport Nuremberg Airport (EDDN)
Time Latitude Longitude Altitude Speed Heading
2026-05-07 15:57 38.29406 27.15029 410 ft 0 kts 257°
2026-05-07 16:08 38.29406 27.15031 410 ft 2 kts 257°
2026-05-07 16:08 38.29412 27.15060 410 ft 2 kts 256°
2026-05-07 16:09 38.29420 27.15087 410 ft 4 kts 222°
2026-05-07 16:09 38.29442 27.15098 410 ft 4 kts 175°
2026-05-07 16:09 38.29458 27.15096 410 ft 0 kts 167°
2026-05-07 16:12 38.29451 27.15098 409 ft 3 kts 167°
2026-05-07 16:12 38.29403 27.15112 407 ft 11 kts 167°
2026-05-07 16:12 38.29310 27.15140 409 ft 15 kts 167°
2026-05-07 16:13 38.29213 27.15169 410 ft 14 kts 166°
2026-05-07 16:13 38.29119 27.15198 410 ft 14 kts 166°
2026-05-07 16:13 38.29024 27.15248 410 ft 17 kts 149°
2026-05-07 16:13 38.28905 27.15328 412 ft 21 kts 163°
2026-05-07 16:14 38.28762 27.15372 412 ft 21 kts 166°
2026-05-07 16:14 38.28620 27.15415 413 ft 21 kts 167°
2026-05-07 16:14 38.28482 27.15457 416 ft 20 kts 166°
2026-05-07 16:14 38.28349 27.15498 412 ft 19 kts 167°
2026-05-07 16:15 38.28219 27.15536 412 ft 19 kts 167°
2026-05-07 16:15 38.28095 27.15575 411 ft 18 kts 166°
2026-05-07 16:15 38.27966 27.15613 409 ft 19 kts 167°
2026-05-07 16:15 38.27845 27.15650 415 ft 16 kts 167°
2026-05-07 16:16 38.27767 27.15681 411 ft 7 kts 135°
2026-05-07 16:16 38.27765 27.15740 412 ft 7 kts 76°
2026-05-07 16:16 38.27773 27.15784 411 ft 0 kts 77°
2026-05-07 16:16 38.27773 27.15786 418 ft 1 kts 77°
2026-05-07 16:17 38.27781 27.15830 417 ft 9 kts 77°
2026-05-07 16:17 38.27799 27.15905 410 ft 5 kts 46°
2026-05-07 16:17 38.27820 27.15909 416 ft 0 kts 347°
2026-05-07 16:18 38.27837 27.15904 407 ft 14 kts 347°
2026-05-07 16:19 38.28169 27.15803 419 ft 83 kts 346°
2026-05-07 16:19 38.28925 27.15575 414 ft 142 kts 347°
2026-05-07 16:19 38.30014 27.15248 685 ft 167 kts 346°
2026-05-07 16:19 38.31169 27.14908 1322 ft 174 kts 346°
2026-05-07 16:20 38.32365 27.14580 2043 ft 177 kts 346°
2026-05-07 16:20 38.33627 27.14238 2435 ft 199 kts 347°
2026-05-07 16:20 38.35067 27.13846 2673 ft 224 kts 347°
2026-05-07 16:20 38.36660 27.13405 2865 ft 244 kts 344°
2026-05-07 16:21 38.38163 27.12338 3279 ft 255 kts 312°
2026-05-07 16:21 38.38999 27.10337 3865 ft 263 kts 280°
2026-05-07 16:21 38.39087 27.08027 4555 ft 267 kts 268°
2026-05-07 16:21 38.38975 27.05644 5271 ft 271 kts 266°
2026-05-07 16:22 38.38843 27.03236 6022 ft 273 kts 266°
2026-05-07 16:22 38.38713 27.00803 6762 ft 276 kts 266°
2026-05-07 16:22 38.38593 26.98338 7479 ft 280 kts 266°
2026-05-07 16:22 38.38477 26.95851 8190 ft 283 kts 267°
2026-05-07 16:23 38.38362 26.93329 8882 ft 287 kts 267°
2026-05-07 16:23 38.38246 26.90776 9571 ft 289 kts 267°
2026-05-07 16:23 38.38130 26.88204 10262 ft 292 kts 267°
2026-05-07 16:23 38.38010 26.85532 10499 ft 313 kts 267°
2026-05-07 16:24 38.37925 26.83667 10613 ft 326 kts 267°
2026-05-07 16:24 38.37790 26.80686 10778 ft 346 kts 267°
2026-05-07 16:24 38.37648 26.77562 11142 ft 358 kts 267°
2026-05-07 16:24 38.37502 26.74382 11745 ft 361 kts 267°
2026-05-07 16:25 38.37353 26.71172 12408 ft 363 kts 267°
2026-05-07 16:25 38.37203 26.67951 13098 ft 365 kts 267°
2026-05-07 16:25 38.37052 26.64704 13748 ft 368 kts 267°
2026-05-07 16:25 38.36899 26.61440 14390 ft 371 kts 267°
2026-05-07 16:26 38.36743 26.58149 15033 ft 374 kts 267°
2026-05-07 16:26 38.36586 26.54830 15702 ft 376 kts 267°
2026-05-07 16:26 38.36426 26.51488 16357 ft 379 kts 267°
2026-05-07 16:26 38.36265 26.48134 16981 ft 382 kts 267°
2026-05-07 16:27 38.36101 26.44743 17569 ft 385 kts 267°
2026-05-07 16:27 38.35934 26.41322 18160 ft 388 kts 267°
2026-05-07 16:27 38.35768 26.37925 18725 ft 390 kts 267°
2026-05-07 16:27 38.35595 26.34418 19287 ft 393 kts 267°
2026-05-07 16:28 38.35425 26.30965 19794 ft 397 kts 267°
2026-05-07 16:28 38.35249 26.27439 20326 ft 400 kts 267°
2026-05-07 16:28 38.35071 26.23897 20850 ft 402 kts 267°
2026-05-07 16:28 38.34894 26.20326 21349 ft 405 kts 267°
2026-05-07 16:29 38.34823 26.16727 21807 ft 408 kts 270°
2026-05-07 16:29 38.34889 26.13103 22253 ft 410 kts 274°
2026-05-07 16:29 38.35152 26.09473 22710 ft 413 kts 276°
2026-05-07 16:29 38.35450 26.05822 23138 ft 415 kts 276°
2026-05-07 16:30 38.35743 26.02153 23549 ft 418 kts 276°
2026-05-07 16:30 38.36025 25.98448 23982 ft 421 kts 275°
2026-05-07 16:30 38.36292 25.94726 24426 ft 422 kts 275°
2026-05-07 16:30 38.36552 25.90985 24802 ft 425 kts 275°
2026-05-07 16:31 38.36813 25.87268 25171 ft 427 kts 275°
2026-05-07 16:31 38.37094 25.83488 25510 ft 429 kts 278°
2026-05-07 16:31 38.37950 25.79835 25799 ft 433 kts 296°
2026-05-07 16:31 38.39604 25.76633 26174 ft 434 kts 310°
2026-05-07 16:32 38.41853 25.74057 26527 ft 437 kts 322°
2026-05-07 16:32 38.44310 25.71752 26850 ft 439 kts 322°
2026-05-07 16:32 38.46770 25.69435 27126 ft 441 kts 322°
2026-05-07 16:32 38.49231 25.67075 27405 ft 443 kts 322°
2026-05-07 16:33 38.51692 25.64685 27721 ft 444 kts 321°
2026-05-07 16:33 38.54108 25.62325 28148 ft 442 kts 321°
2026-05-07 16:33 38.56539 25.59942 28609 ft 440 kts 321°
2026-05-07 16:33 38.58964 25.57561 29033 ft 438 kts 321°
2026-05-07 16:34 38.61376 25.55190 29417 ft 437 kts 321°
2026-05-07 16:34 38.63786 25.52821 29776 ft 436 kts 321°
2026-05-07 16:34 38.66192 25.50454 30190 ft 434 kts 321°
2026-05-07 16:34 38.68569 25.48116 30761 ft 428 kts 321°
2026-05-07 16:35 38.70910 25.45811 31387 ft 421 kts 321°
2026-05-07 16:35 38.73211 25.43544 31927 ft 415 kts 321°
2026-05-07 16:35 38.75505 25.41283 32114 ft 419 kts 321°
2026-05-07 16:36 38.80140 25.36703 32124 ft 419 kts 321°
2026-05-07 16:36 38.84711 25.32180 32127 ft 412 kts 321°
2026-05-07 16:37 38.89261 25.27669 32139 ft 414 kts 321°
2026-05-07 16:37 38.93798 25.23164 32136 ft 416 kts 321°
2026-05-07 16:38 38.98381 25.18606 32126 ft 417 kts 321°
2026-05-07 16:38 39.02976 25.14030 32110 ft 418 kts 321°
2026-05-07 16:39 39.07566 25.09450 32101 ft 417 kts 321°
2026-05-07 16:39 39.12153 25.04871 32093 ft 417 kts 321°
2026-05-07 16:40 39.16724 25.00272 32116 ft 416 kts 321°
2026-05-07 16:40 39.21273 24.95730 32100 ft 416 kts 321°
2026-05-07 16:41 39.25837 24.91144 32101 ft 416 kts 321°
2026-05-07 16:41 39.30397 24.86546 32099 ft 415 kts 321°
2026-05-07 16:42 39.34954 24.81946 32097 ft 415 kts 321°
2026-05-07 16:42 39.39503 24.77344 32112 ft 415 kts 321°
2026-05-07 16:43 39.44017 24.72774 32102 ft 415 kts 321°
2026-05-07 16:43 39.48566 24.68160 32094 ft 415 kts 321°
2026-05-07 16:44 39.53117 24.63535 32094 ft 416 kts 321°
2026-05-07 16:44 39.57688 24.58880 32092 ft 417 kts 321°
2026-05-07 16:45 39.62253 24.54223 32116 ft 418 kts 321°
2026-05-07 16:45 39.66833 24.49541 32121 ft 419 kts 321°
2026-05-07 16:46 39.71419 24.44847 32102 ft 420 kts 321°
2026-05-07 16:46 39.76016 24.40127 32102 ft 421 kts 320°
2026-05-07 16:47 39.80615 24.35404 32108 ft 422 kts 320°
2026-05-07 16:47 39.85219 24.30667 32099 ft 423 kts 320°
2026-05-07 16:48 39.89834 24.25910 32092 ft 423 kts 320°
2026-05-07 16:48 39.94457 24.21137 32094 ft 424 kts 320°